Probability
42 35 23 6 0 0 0 0 0 0 0 0 0 0 0 0 0 0 0 6 3 10 26 35 39 32 39 42 45 35 45 45 45 42 42 42 42 45 45 42 42 39 39 39 39 42 42 42 45
26 29 16 0 0 0 0 0 0 0 0 0 0 0 0 0 0 0 6 10 6 13 13 26 42 35 39 42 42 39 42 42 45 42 42 39 39 39 45 45 35 39 29 32 29 32 35 39 42
26 23 0 0 0 0 0 0 0 0 0 0 0 0 0 0 0 0 6 10 10 10 13 32 39 32 42 42 39 39 35 39 39 35 39 39 35 32 35 32 39 29 26 26 29 26 29 32 35
13 3 0 0 0 0 0 0 0 0 0 0 0 0 0 0 0 0 13 13 6 10 13 32 42 42 39 39 32 29 26 35 35 39 32 39 32 29 29 32 32 23 26 26 23 23 23 26 29
3 0 0 0 0 0 0 0 0 0 0 0 0 0 0 0 0 13 13 13 6 10 16 26 39 35 32 39 39 32 32 29 26 26 23 29 26 23 19 29 26 16 19 19 19 16 16 13 19
0 0 0 0 0 0 0 0 0 0 0 0 0 0 0 0 0 13 13 13 10 10 13 26 32 32 32 35 35 32 16 26 23 16 16 19 23 23 19 26 16 16 16 16 16 10 13 16 19
0 0 0 0 0 0 0 0 0 0 0 0 0 0 0 0 0 3 13 13 10 10 16 13 23 23 35 32 29 23 16 13 10 10 13 13 16 19 13 13 10 13 19 13 13 13 16 13 16
0 0 0 0 0 0 0 0 0 0 0 0 0 0 0 0 0 3 10 10 13 10 13 10 6 6 10 16 29 23 13 16 13 13 10 13 13 13 13 6 6 6 6 10 10 13 16 16 19
0 0 0 0 0 0 0 0 0 0 0 3 3 0 0 0 3 6 3 3 3 6 3 6 3 0 0 0 10 13 13 19 13 10 6 10 3 3 3 6 10 13 16 19 16 10 13 10 13
0 0 0 0 0 0 0 0 0 0 3 0 0 3 3 0 3 3 3 3 3 6 3 0 0 0 0 0 0 0 0 0 0 3 0 0 0 3 3 3 6 10 10 16 10 19 10 6 0
0 0 0 0 0 0 0 0 0 0 0 0 3 3 3 3 3 3 3 3 3 3 6 0 0 0 0 0 0 0 0 0 0 0 0 0 0 0 0 0 0 3 6 6 3 3 0 0 0
0 0 0 0 0 0 0 0 0 0 0 0 0 3 3 3 3 0 0 3 0 0 0 0 0 0 0 0 0 0 0 0 0 0 0 0 0 0 0 0 0 0 0 0 0 0 0 0 0
0 0 0 0 0 0 0 0 0 0 0 3 3 3 3 3 0 0 3 3 6 3 0 0 0 0 0 0 0 0 0 0 0 0 0 0 0 0 0 0 0 0 0 0 0 0 0 0 0
0 0 0 0 0 0 0 0 0 0 3 6 3 3 0 3 3 3 3 3 3 3 0 0 0 0 0 0 0 0 0 0 0 0 0 0 0 0 0 0 0 0 0 0 0 0 0 0 0
0 0 0 0 0 0 0 0 0 0 6 6 6 6 0 3 3 3 3 3 3 3 3 3 3 0 0 0 0 0 0 0 0 0 0 0 0 0 0 0 0 0 0 0 0 0 0 0 0
0 0 0 0 0 0 0 0 0 0 6 6 6 3 0 0 3 3 3 3 3 3 3 6 6 3 0 0 0 0 0 0 0 0 0 0 0 0 0 0 0 0 0 0 0 0 0 0 0
0 0 0 0 0 0 0 0 0 0 3 3 3 0 0 0 0 0 3 3 3 3 3 6 6 3 0 0 0 0 0 0 0 0 0 0 0 0 0 0 0 0 0 0 0 0 0 0 0
0 0 0 0 0 0 0 0 0 0 0 3 3 0 0 0 0 0 3 3 3 3 0 0 3 0 0 0 0 0 0 0 0 0 0 0 0 0 0 0 0 0 0 0 0 0 0 0 0
0 0 0 0 0 0 0 0 0 0 0 0 3 0 0 0 0 0 0 3 3 3 0 0 0 0 0 0 0 0 0 0 0 0 0 0 0 0 0 0 0 0 0 0 0 0 0 0 0
0 0 0 0 0 0 0 0 0 0 0 0 0 0 0 0 0 0 0 3 3 0 0 0 0 0 0 0 0 0 0 0 0 0 0 0 0 0 0 0 0 0 0 0 0 0 0 0 0
0 0 0 0 0 0 0 0 0 0 0 0 0 0 0 0 0 0 0 0 0 0 3 3 0 0 0 0 0 0 0 0 0 0 0 0 0 0 0 0 0 0 0 0 0 0 0 0 0
0 0 0 0 0 0 0 0 0 0 0 0 0 0 0 0 0 0 0 0 0 0 3 3 0 0 0 0 0 0 0 0 0 0 0 0 0 0 0 0 0 0 0 0 0 0 0 0 0
0 0 0 0 0 0 0 0 0 0 0 0 0 0 0 0 0 0 0 0 0 0 0 0 0 0 0 0 0 0 0 0 0 0 0 0 0 0 0 0 0 0 0 0 0 0 0 0 0
0 0 0 0 0 0 0 0 0 0 0 0 0 0 0 0 0 0 0 0 0 0 0 0 0 0 0 0 0 0 0 0 0 0 0 0 0 0 0 0 0 0 0 0 0 0 0 0 0
0 0 0 0 0 0 0 0 0 0 0 0 0 0 0 0 0 0 0 0 0 0 0 0 0 0 0 0 0 0 0 0 0 0 0 0 0 0 0 0 0 0 0 0 0 0 0 0 0
0 0 0 0 0 0 0 0 0 0 0 0 0 0 0 0 0 0 0 0 0 0 0 0 0 0 0 0 0 0 0 0 0 0 0 0 0 0 0 0 0 0 0 0 0 0 0 0 0
0 0 0 0 0 0 0 0 0 0 0 0 0 0 0 0 0 0 0 0 0 0 0 3 0 0 0 0 0 0 0 0 0 0 0 0 0 0 0 0 0 0 0 0 0 0 0 0 0
0 0 0 0 0 0 0 0 0 0 0 0 0 0 0 0 0 0 0 0 0 0 0 0 0 0 0 0 0 0 0 0 0 0 0 0 0 0 0 0 0 0 0 0 0 0 0 0 0
0 0 0 0 0 0 0 0 0 0 0 0 0 0 0 0 0 0 0 3 3 0 0 0 0 0 0 0 0 0 0 0 0 0 0 0 0 0 0 0 0 0 0 0 0 0 0 0 0
0 0 0 0 0 0 0 0 0 0 0 0 0 0 0 0 0 0 0 3 3 0 0 0 0 0 0 0 0 0 0 0 0 0 0 0 0 0 0 0 0 0 0 0 0 0 0 0 0
Height
5885 5885 5886 5886 5886 5886 5885 5886 5885 5886 5886 5886 5886 5886 5886 5887 5888 5890 5887 5885 5885 5885 5885 5885 5885 5885 5885 5885 5885 5885 5885 5885 5885 5884 5884 5884 5884 5883 5883 5883 5882 5881 5881 5881 5880 5880 5879 5879 5879
5885 5885 5886 5886 5885 5885 5885 5884 5884 5885 5885 5885 5885 5885 5885 5885 5885 5885 5884 5884 5884 5884 5884 5884 5884 5884 5884 5884 5884 5884 5884 5884 5883 5883 5883 5883 5882 5882 5882 5881 5881 5880 5880 5879 5879 5879 5878 5878 5878
5884 5885 5886 5885 5884 5884 5885 5884 5883 5883 5883 5884 5884 5884 5884 5884 5884 5884 5883 5883 5883 5883 5883 5883 5883 5883 5883 5883 5883 5883 5883 5882 5882 5882 5882 5881 5881 5881 5880 5880 5880 5879 5879 5878 5878 5877 5877 5877 5877
5884 5885 5885 5885 5884 5884 5883 5883 5882 5882 5882 5882 5882 5883 5883 5883 5883 5882 5882 5882 5882 5882 5882 5882 5882 5882 5882 5881 5881 5881 5881 5881 5881 5880 5880 5880 5880 5879 5879 5878 5878 5878 5878 5877 5877 5876 5876 5876 5876
5883 5883 5884 5883 5883 5882 5882 5881 5881 5881 5881 5881 5881 5881 5881 5881 5881 5881 5881 5881 5881 5880 5880 5880 5880 5880 5880 5880 5880 5879 5879 5879 5879 5879 5878 5878 5878 5878 5877 5877 5877 5876 5876 5876 5875 5875 5875 5875 5874
5882 5882 5882 5882 5881 5881 5880 5880 5880 5880 5880 5880 5880 5880 5880 5880 5880 5880 5879 5879 5879 5879 5879 5879 5879 5879 5878 5878 5878 5878 5878 5877 5877 5877 5877 5876 5876 5876 5875 5875 5875 5875 5874 5874 5874 5874 5874 5873 5873
5881 5881 5881 5880 5880 5880 5879 5879 5879 5879 5879 5879 5879 5879 5879 5879 5879 5878 5878 5878 5877 5877 5877 5877 5877 5877 5877 5876 5876 5876 5876 5876 5875 5875 5875 5874 5874 5874 5874 5873 5873 5873 5873 5872 5872 5872 5872 5872 5871
5879 5880 5879 5879 5879 5879 5878 5877 5878 5878 5878 5878 5877 5878 5877 5877 5877 5877 5877 5876 5876 5876 5876 5876 5875 5875 5875 5875 5874 5874 5874 5874 5874 5873 5873 5872 5872 5872 5871 5871 5871 5871 5871 5871 5870 5870 5870 5870 5869
5878 5879 5877 5877 5878 5877 5877 5876 5876 5876 5876 5876 5876 5876 5876 5876 5876 5875 5875 5875 5875 5875 5874 5874 5874 5873 5873 5873 5873 5872 5872 5872 5871 5871 5871 5870 5870 5870 5870 5869 5869 5869 5869 5868 5868 5868 5868 5867 5867
5876 5876 5876 5876 5876 5876 5875 5875 5875 5875 5874 5874 5874 5874 5874 5874 5874 5874 5874 5874 5874 5873 5873 5872 5872 5872 5871 5871 5871 5871 5870 5870 5870 5869 5869 5869 5868 5868 5868 5867 5867 5867 5867 5866 5866 5866 5866 5865 5865
5874 5875 5875 5874 5874 5874 5874 5874 5873 5873 5873 5873 5873 5873 5872 5873 5873 5873 5873 5873 5872 5872 5872 5871 5871 5870 5870 5870 5869 5869 5869 5869 5868 5868 5867 5867 5866 5866 5866 5865 5865 5865 5864 5864 5864 5864 5864 5863 5863
5873 5873 5873 5873 5872 5872 5873 5872 5872 5872 5872 5872 5871 5871 5871 5871 5871 5871 5871 5871 5871 5871 5870 5870 5870 5869 5869 5868 5868 5867 5867 5867 5866 5866 5865 5865 5864 5864 5864 5863 5863 5863 5862 5862 5862 5862 5861 5861 5861
5871 5871 5871 5871 5870 5870 5871 5871 5871 5871 5871 5870 5870 5870 5870 5869 5869 5869 5869 5870 5869 5869 5869 5868 5868 5868 5867 5867 5866 5866 5866 5865 5865 5864 5863 5863 5863 5863 5862 5862 5861 5861 5860 5860 5859 5859 5859 5858 5858
5869 5870 5870 5869 5869 5869 5869 5869 5869 5869 5869 5869 5868 5868 5868 5868 5868 5868 5868 5868 5868 5868 5867 5867 5867 5866 5866 5865 5865 5865 5864 5864 5863 5863 5862 5861 5861 5861 5860 5860 5859 5858 5858 5857 5857 5857 5856 5856 5856
5868 5868 5868 5868 5868 5868 5868 5868 5868 5867 5868 5868 5867 5867 5867 5866 5866 5866 5866 5866 5866 5866 5866 5866 5866 5865 5865 5864 5863 5863 5863 5862 5862 5861 5860 5860 5859 5859 5858 5858 5857 5856 5856 5855 5855 5854 5854 5854 5854
5867 5867 5867 5867 5867 5866 5868 5867 5867 5866 5866 5866 5866 5866 5865 5865 5865 5865 5865 5865 5865 5865 5864 5864 5864 5863 5863 5862 5862 5862 5861 5861 5860 5860 5859 5858 5858 5857 5857 5856 5855 5855 5854 5853 5853 5852 5852 5851 5851
5865 5866 5866 5866 5865 5865 5866 5865 5865 5865 5865 5865 5865 5865 5864 5864 5864 5864 5863 5863 5863 5863 5863 5862 5862 5861 5861 5861 5860 5860 5860 5859 5859 5858 5858 5857 5856 5856 5855 5854 5854 5853 5852 5851 5851 5850 5849 5849 5849
5865 5865 5864 5864 5864 5864 5864 5864 5864 5864 5863 5863 5863 5863 5863 5863 5862 5862 5862 5862 5862 5861 5861 5860 5860 5860 5859 5858 5858 5858 5858 5857 5856 5856 5856 5855 5855 5854 5853 5853 5852 5851 5850 5849 5849 5848 5847 5847 5846
5864 5863 5863 5863 5862 5862 5862 5862 5863 5862 5862 5862 5862 5862 5861 5861 5861 5861 5860 5860 5859 5859 5859 5858 5858 5858 5857 5857 5856 5856 5856 5855 5854 5854 5853 5853 5853 5852 5851 5851 5850 5849 5848 5847 5847 5846 5845 5845 5844
5862 5862 5861 5861 5861 5861 5861 5861 5861 5861 5861 5860 5860 5860 5860 5860 5859 5859 5858 5858 5858 5857 5857 5856 5856 5856 5855 5855 5854 5854 5854 5853 5852 5852 5851 5851 5851 5850 5849 5849 5848 5847 5846 5845 5845 5844 5843 5842 5842
5860 5861 5861 5860 5860 5860 5860 5860 5860 5860 5859 5859 5859 5858 5858 5858 5857 5857 5856 5856 5856 5855 5855 5854 5854 5853 5853 5852 5852 5851 5851 5851 5851 5850 5849 5849 5848 5847 5847 5846 5845 5845 5844 5843 5842 5842 5841 5840 5839
5860 5860 5860 5859 5859 5859 5859 5859 5859 5858 5857 5857 5857 5856 5856 5856 5855 5854 5854 5853 5853 5853 5852 5852 5852 5851 5851 5850 5849 5849 5849 5849 5848 5848 5847 5847 5846 5845 5844 5843 5843 5842 5841 5840 5840 5839 5838 5838 5836
5859 5859 5858 5858 5857 5857 5857 5857 5858 5856 5855 5855 5855 5854 5854 5854 5853 5852 5851 5851 5851 5850 5850 5850 5849 5849 5849 5848 5848 5847 5847 5846 5846 5845 5845 5844 5843 5843 5842 5841 5840 5839 5838 5838 5837 5836 5835 5834 5833
5857 5857 5857 5856 5856 5856 5855 5855 5855 5854 5854 5853 5853 5852 5852 5851 5851 5850 5849 5848 5848 5848 5847 5847 5847 5847 5846 5846 5845 5845 5844 5844 5843 5843 5842 5841 5841 5840 5839 5838 5837 5836 5835 5835 5834 5833 5832 5831 5830
5855 5856 5856 5855 5854 5854 5854 5852 5853 5852 5852 5851 5851 5850 5849 5849 5848 5847 5846 5846 5845 5845 5844 5844 5844 5844 5843 5843 5842 5842 5841 5841 5840 5839 5839 5838 5838 5837 5836 5835 5834 5833 5832 5831 5830 5829 5828 5827 5826
5853 5854 5854 5854 5853 5852 5852 5850 5852 5850 5849 5849 5848 5848 5847 5846 5845 5844 5844 5843 5842 5842 5841 5841 5841 5841 5840 5840 5839 5839 5838 5837 5836 5836 5835 5835 5834 5833 5833 5832 5830 5829 5828 5827 5826 5825 5824 5824 5823
5851 5851 5852 5851 5850 5850 5849 5849 5849 5847 5847 5846 5845 5845 5844 5843 5842 5841 5841 5840 5839 5839 5838 5837 5837 5837 5836 5836 5835 5835 5834 5833 5832 5832 5831 5831 5830 5829 5828 5828 5827 5826 5824 5823 5822 5821 5820 5819 5818
5849 5849 5849 5848 5847 5847 5847 5846 5846 5845 5844 5843 5843 5842 5841 5840 5839 5838 5837 5836 5836 5835 5834 5834 5833 5833 5832 5832 5831 5830 5830 5829 5828 5827 5827 5826 5825 5825 5824 5823 5822 5821 5820 5819 5818 5817 5816 5815 5814
5847 5847 5846 5845 5844 5844 5843 5845 5843 5842 5841 5840 5839 5838 5837 5836 5835 5834 5833 5833 5832 5831 5830 5830 5829 5828 5827 5827 5826 5825 5825 5824 5823 5823 5822 5821 5820 5820 5819 5818 5817 5816 5815 5814 5813 5811 5811 5810 5809
5843 5843 5843 5843 5841 5840 5840 5843 5839 5838 5837 5836 5835 5835 5834 5832 5831 5830 5829 5828 5827 5827 5826 5825 5824 5823 5822 5822 5821 5820 5819 5819 5818 5817 5816 5816 5815 5814 5813 5813 5812 5810 5809 5808 5807 5806 5805 5804 5803
Wind_Speed
3 3 3 4 4 6 6 6 5 4 3 3 3 4 4 4 4 5 4 4 4 4 4 5 5 6 6 6 6 6 6 6 6 6 6 6 6 6 6 6 6 6 6 7 7 7 7 7 7
3 3 4 4 4 5 5 5 5 4 3 3 4 4 5 4 4 5 5 5 5 5 5 6 6 6 7 8 7 7 7 7 8 8 8 7 7 7 6 6 6 6 6 7 7 7 7 7 7
3 3 3 4 4 4 3 3 4 2 3 3 4 4 5 5 5 5 6 6 6 6 6 6 7 8 8 8 9 9 9 9 9 8 8 8 8 7 7 7 7 6 6 7 7 7 7 7 7
4 4 4 5 5 4 3 3 3 2 3 4 4 3 4 4 5 6 6 6 6 6 6 6 7 7 8 8 9 9 9 9 9 9 9 9 9 9 8 8 8 7 7 7 6 7 7 7 7
5 5 5 6 6 4 4 4 3 3 3 3 4 4 4 4 5 6 6 6 6 6 7 7 7 8 8 7 8 9 9 9 9 9 9 9 9 9 9 8 8 8 8 8 8 8 8 8 8
5 6 6 6 5 4 4 5 4 4 3 3 4 4 4 4 5 5 5 5 6 6 6 7 8 8 8 8 8 9 9 9 10 9 9 9 9 9 10 10 10 9 9 9 9 8 9 9 9
6 6 6 6 5 4 5 5 5 5 4 4 4 4 4 4 5 5 5 5 6 6 7 7 8 8 8 9 9 9 9 9 9 10 10 10 10 10 10 11 11 11 10 9 9 9 9 9 9
7 7 7 7 6 6 5 5 6 5 4 4 4 5 5 5 5 5 5 5 6 6 7 7 8 8 9 9 8 8 9 9 9 10 10 10 10 10 10 11 11 11 10 10 10 9 9 9 9
8 8 8 7 6 6 5 6 5 5 4 5 5 5 5 5 4 5 5 5 5 6 7 8 8 8 8 8 8 8 8 9 9 9 9 10 10 10 10 10 11 10 10 10 10 10 9 9 9
8 7 7 7 6 5 5 5 5 4 4 5 5 6 6 5 4 4 5 5 5 6 7 8 7 7 7 8 7 8 8 9 8 9 9 9 10 10 10 10 10 10 10 10 10 10 9 9 9
8 7 6 6 6 6 6 5 5 5 5 5 5 5 6 6 5 5 5 5 6 6 6 6 6 6 7 7 7 7 7 7 8 8 8 9 9 9 8 9 9 9 9 10 10 10 10 10 10
7 6 6 6 5 6 6 5 5 6 5 5 6 5 5 6 6 5 5 5 5 5 5 5 5 6 6 7 7 8 7 7 7 7 7 7 8 8 8 8 8 9 10 10 10 10 11 11 10
7 6 6 6 6 6 6 5 5 5 5 5 5 5 5 5 6 6 5 5 5 6 6 5 6 6 6 6 6 6 6 6 6 6 7 7 7 8 8 8 8 8 9 9 10 10 10 10 10
7 6 6 5 6 5 5 5 5 5 5 5 5 4 5 5 5 6 5 5 5 5 5 5 5 6 6 5 5 5 5 6 6 6 6 6 7 7 8 9 9 9 9 10 10 10 9 9 10
7 6 6 5 5 5 5 5 4 4 4 4 5 5 5 5 5 5 5 5 5 5 5 5 5 5 5 5 5 5 5 6 6 6 6 6 6 7 7 8 9 9 9 10 10 9 9 10 10
6 6 6 5 4 4 5 5 5 5 5 4 4 4 4 5 5 5 5 5 5 5 5 6 5 5 4 4 5 5 5 6 6 6 6 6 6 7 7 7 8 8 8 8 9 9 9 9 10
5 4 4 4 3 4 4 4 4 4 4 4 4 4 4 5 5 5 5 5 5 5 5 5 5 5 5 5 6 6 6 6 6 6 6 6 7 7 7 7 8 8 8 8 7 7 8 9 9
4 4 4 4 4 4 4 3 4 4 3 3 4 4 4 4 5 5 5 6 6 6 5 5 5 6 7 6 6 6 6 7 7 6 6 6 7 7 7 7 8 8 8 8 7 8 8 8 9
3 4 4 3 3 4 3 3 4 4 4 4 4 4 4 4 5 5 6 6 6 6 6 6 6 6 7 7 7 7 7 7 7 6 6 7 7 8 8 8 8 8 8 8 8 8 8 8 8
3 3 3 3 3 3 3 4 4 4 5 5 5 5 5 6 6 6 6 7 7 7 6 7 7 7 7 8 7 7 7 6 6 6 6 7 7 7 8 7 8 8 8 8 8 8 9 9 9
3 2 2 2 3 3 3 3 4 4 4 4 4 5 5 6 6 7 7 7 8 8 7 7 7 7 8 8 7 7 6 6 6 6 6 7 6 7 8 9 9 9 9 9 9 10 9 9 9
3 3 2 3 3 4 4 3 2 4 4 4 5 5 5 6 7 7 8 8 8 8 8 7 7 8 8 8 7 6 7 7 7 7 7 7 8 9 10 10 10 10 10 10 10 10 10 10 10
3 3 3 3 4 5 4 4 3 4 4 4 5 5 5 6 6 7 8 8 8 8 8 8 8 8 8 8 8 8 9 9 9 9 9 10 10 10 11 10 10 10 10 10 10 11 11 11 11
4 4 4 4 4 5 5 5 4 4 4 4 4 5 6 6 7 7 8 8 8 9 8 8 8 9 9 9 9 10 10 10 10 10 10 10 11 11 11 11 10 10 10 11 11 11 11 11 12
5 5 5 5 6 5 5 6 5 5 5 5 5 6 7 8 8 8 8 8 8 9 9 9 9 10 10 10 11 11 11 11 11 11 11 11 11 11 11 12 11 11 11 12 12 12 12 12 12
5 6 6 6 6 5 5 5 5 6 6 7 7 8 8 9 9 9 9 9 10 10 10 11 11 11 11 11 12 12 12 12 12 12 12 12 12 13 13 13 13 13 13 13 13 13 13 13 13
6 6 6 7 8 8 8 8 7 8 8 9 9 9 10 10 10 10 10 10 11 11 11 11 11 12 12 12 13 14 13 14 14 13 14 14 14 14 14 14 14 14 14 14 14 14 14 14 14
7 7 8 8 10 10 10 10 9 10 10 10 10 10 11 12 12 12 12 12 12 12 12 13 12 13 13 14 14 14 15 15 15 15 15 15 15 15 15 15 15 16 15 15 15 16 16 16 15
9 9 9 10 11 12 12 11 11 12 12 12 11 12 12 13 13 13 13 13 13 14 14 14 14 15 15 15 15 15 16 16 16 16 16 16 16 16 16 16 17 17 17 17 17 17 17 17 17
10 10 11 11 11 12 13 12 12 13 13 13 13 13 14 14 14 14 15 15 14 15 15 16 16 16 17 17 16 16 16 17 17 17 16 16 17 17 17 17 18 18 18 18 18 19 19 19 18
Wind_Direction
227 227 228 237 235 230 234 237 228 232 227 229 241 242 232 236 241 246 245 242 245 248 250 248 251 255 258 260 264 263 261 266 268 271 272 273 272 271 273 274 270 268 269 271 270 267 264 262 257
238 241 241 241 242 239 237 234 235 234 220 227 241 243 241 239 238 247 251 250 253 259 259 258 258 261 263 262 263 263 260 266 269 272 273 273 269 266 267 267 267 269 272 271 272 268 266 264 260
248 251 255 251 254 249 244 241 232 227 232 237 246 249 247 246 243 246 251 260 260 264 263 265 268 263 264 265 262 263 262 267 273 275 272 272 270 268 266 263 266 272 275 276 273 265 266 265 263
254 247 246 250 255 260 262 239 240 243 234 238 244 245 246 244 243 248 258 267 267 267 266 270 275 266 263 264 262 267 266 266 270 274 270 267 271 271 268 265 263 269 274 273 273 270 270 269 266
254 249 249 257 263 268 273 250 240 242 234 232 238 243 248 247 248 251 259 266 268 269 268 269 271 266 264 267 268 268 267 269 270 271 271 268 267 266 264 266 266 267 272 270 270 271 272 272 270
255 253 253 260 267 270 275 280 266 256 248 243 244 250 254 250 250 252 259 267 272 273 269 267 271 269 264 267 269 269 268 271 272 269 271 268 265 264 261 263 266 268 268 267 267 270 274 273 271
253 255 253 260 263 265 279 284 274 267 260 249 249 256 262 261 256 260 268 271 270 274 271 270 274 272 268 268 271 270 269 272 271 270 270 270 269 267 263 261 265 268 269 267 267 270 271 271 269
250 254 254 256 264 276 285 279 279 277 267 261 258 260 261 264 259 266 273 273 275 278 276 271 274 273 268 266 271 272 272 273 274 275 273 272 272 269 264 262 264 268 267 268 270 270 271 269 267
247 250 254 261 271 277 279 281 281 282 274 270 264 262 263 267 267 272 277 276 279 282 282 279 277 274 270 271 275 273 273 274 275 277 277 273 271 270 268 266 265 264 267 269 270 269 269 268 265
246 247 252 258 266 272 274 281 290 292 283 277 270 265 264 265 267 269 271 275 278 282 285 282 284 278 271 271 275 275 274 274 278 281 280 277 273 272 268 267 267 266 267 268 266 267 270 265 265
243 242 250 260 269 266 272 281 289 295 285 279 280 280 270 266 266 271 273 273 275 282 288 286 279 274 272 274 277 280 278 280 285 286 285 278 270 270 268 266 269 265 267 269 268 265 267 266 266
241 242 250 261 267 265 264 267 277 281 277 277 281 284 283 274 267 268 273 269 272 283 289 292 285 279 279 280 282 286 288 290 288 288 287 276 269 267 267 265 269 269 268 270 269 270 268 266 263
237 238 249 258 266 272 265 265 272 273 276 283 287 286 282 276 270 268 269 268 266 273 280 280 281 284 284 282 284 288 293 293 291 288 285 274 272 274 272 271 271 271 270 270 269 267 268 265 262
238 242 245 255 264 271 274 277 284 270 269 278 284 290 286 271 266 266 267 266 270 272 267 274 280 286 283 282 285 290 289 291 292 287 283 279 276 274 273 275 273 271 269 271 268 266 265 267 265
232 238 246 249 257 269 275 278 278 266 267 280 287 292 287 271 263 262 261 263 267 269 267 273 274 280 278 280 281 286 286 292 292 286 285 286 285 289 287 284 281 276 274 272 268 269 270 271 269
234 236 243 245 260 276 276 267 266 272 276 285 291 294 285 271 267 267 262 262 267 270 270 273 274 281 282 287 286 287 288 287 287 289 287 287 289 286 286 292 289 285 281 279 275 277 278 279 277
239 240 245 251 261 275 275 269 270 278 277 289 295 289 284 280 276 272 265 268 271 272 266 266 275 281 282 286 286 290 290 287 284 285 289 289 288 286 286 294 292 289 287 284 282 283 282 282 282
249 252 254 252 252 271 278 273 273 278 284 291 293 288 284 279 273 272 272 273 273 274 271 276 279 281 283 283 286 291 291 284 279 280 287 292 290 286 288 291 291 290 288 288 289 290 286 282 284
253 257 260 260 256 267 274 279 281 272 278 290 294 287 282 280 275 271 273 273 275 275 278 280 283 285 285 283 282 289 292 287 285 285 286 291 290 285 287 292 295 294 291 292 290 292 287 284 283
267 278 269 265 258 259 261 271 281 272 277 283 288 286 285 283 280 280 278 275 274 275 278 277 280 285 288 284 279 283 286 282 286 289 288 290 290 291 292 293 293 291 291 294 294 294 294 293 290
263 265 275 272 265 264 278 278 277 272 280 285 288 292 288 284 283 281 281 280 278 278 279 280 284 288 289 286 276 275 276 282 285 288 289 289 295 295 297 298 295 292 292 292 293 295 295 293 290
251 257 262 267 269 282 288 294 287 279 283 290 295 296 294 293 288 285 283 280 278 279 278 279 280 280 284 282 277 278 278 281 285 287 290 290 295 297 301 305 298 292 289 291 294 294 292 293 291
253 264 276 273 277 289 294 294 291 284 287 292 298 296 300 302 299 293 289 284 279 277 279 277 278 278 280 277 276 277 280 283 286 287 289 291 292 295 297 299 297 294 290 289 289 288 288 291 291
264 263 268 268 271 279 290 293 296 285 292 291 297 299 298 296 295 292 290 285 279 280 280 277 276 278 281 280 279 277 280 284 286 287 289 290 291 293 292 294 294 292 291 291 290 288 287 289 290
261 260 261 260 262 275 284 290 294 294 290 292 293 295 298 294 291 289 290 286 284 284 282 278 278 276 278 280 279 278 281 283 284 284 284 286 288 289 290 290 290 291 291 290 290 288 287 287 288
257 256 262 267 273 270 278 284 288 289 289 293 294 292 292 293 291 290 288 284 282 280 278 278 275 272 275 277 279 279 280 282 283 284 283 284 285 286 287 287 286 288 288 288 288 289 288 288 288
261 264 271 278 280 279 279 284 286 289 291 293 294 293 292 291 288 289 288 285 281 279 279 279 278 274 273 274 278 281 282 283 281 280 280 283 285 284 284 284 284 285 285 287 287 287 287 288 287
262 272 277 277 280 280 277 277 284 287 290 290 288 291 293 289 287 287 286 283 284 283 282 282 282 280 277 275 276 278 280 281 278 277 278 279 280 281 282 282 282 282 283 285 285 285 284 284 285
263 269 273 277 278 282 284 283 285 285 287 289 290 293 292 292 291 287 285 285 287 285 281 279 280 281 281 280 279 278 276 276 279 279 276 275 277 279 281 282 282 282 282 282 283 283 283 281 281
267 272 275 279 281 282 286 286 287 286 286 289 291 294 295 291 289 289 288 287 287 288 286 282 280 279 281 280 280 280 279 279 278 281 280 276 276 277 278 280 281 281 282 282 282 282 281 280 279